Regional Weather Roundup
Issued by NWS

Home | Current Version | Previous Version | Text Only | Print | Product List | Glossary Off
Versions: 1 2 3 4 5 6 7 8 9 10 11 12 13 14 15 16 17 18 19 20 21 22 23 24 25 26 27 28 29 30 31 32 33 34 35 36 37 38 39 40 41 42 43 44 45 46 47 48 49 50

000
ASUS43 KFSD 171602
RWRSD

WEATHER ROUNDUP FOR SOUTH DAKOTA
NATIONAL WEATHER SERVICE SIOUX FALLS SD
1100 AM CDT THU AUG 17 2017

NOTE: "FAIR" INDICATES FEW OR NO CLOUDS BELOW 12,000 FEET WITH NO
SIGNIFICANT WEATHER AND/OR OBSTRUCTIONS TO VISIBILITY.


SDZ001>005-009-010-012>017-171700-
NORTHWEST AND NORTH CENTRAL SOUTH DAKOTA

CITY           SKY/WX    TMP DP  RH WIND       PRES   REMARKS
BUFFALO          N/A     76  48  37 W6        29.86S
FAITH            N/A     76  51  41 S21       29.90F
MOBRIDGE       SUNNY     72  62  71 SE7       29.90F
$$

SDZ012>016-024>037-041>051-057-063-072>074-171700-
SOUTHWEST AND SOUTH CENTRAL SOUTH DAKOTA

CITY           SKY/WX    TMP DP  RH WIND       PRES   REMARKS
RAPID CTY ARPT CLOUDY    72  53  51 SE6       29.94F
PIERRE         SUNNY     69  53  56 SE6       29.92F
CUSTER         CLOUDY    69  44  40 W6        30.10S
PHILIP         SUNNY     81  53  37 S9        29.92F
PINE RIDGE     CLOUDY    74  56  53 S8        29.99S
SPEARFISH      FAIR      81  45  28 NW6       29.98S
WINNER         FAIR      78  58  49 SW5       29.97S
$$

SDZ004>011-016>023-039-040-171700-
NORTHEAST SOUTH DAKOTA

CITY           SKY/WX    TMP DP  RH WIND       PRES   REMARKS
ABERDEEN       SUNNY     72  61  68 NW7       29.91R
WATERTOWN      SUNNY     70  59  68 NW17      29.87R
BROOKINGS      MOSUNNY   68  60  75 NW14      29.88S
SISSETON         N/A     67  62  84 NW17      29.85R
$$

SDZ017-020-022-023-036>040-048>070-171700-
SOUTHEAST SOUTH DAKOTA

CITY           SKY/WX    TMP DP  RH WIND       PRES   REMARKS
SIOUX FALLS    MOSUNNY   71  61  70 NW17      29.89S
HURON          SUNNY     71  61  70 NW9       29.92S
CHAMBERLAIN    SUNNY     74  56  53 CALM      29.96F
MITCHELL       SUNNY     72  61  68 NW13      29.94R
YANKTON        SUNNY     72  60  66 W16       29.94R
$$

ABBREVIATIONS USED IN REMARKS
   TC - TEMPERATURE IN CELSIUS
  WCI - WIND CHILL INDEX
   HX - HEAT INDEX
  VSB - VISIBILITY





USA.gov is the U.S. government's official web portal to all federal, state and local government web resources and services.